Location: ?
(35.2180°N, 139.6392°E)
Time: 10:00:58
(UTC+00:00)

Envisat - Pass Details

Date: 05 August 2024
Orbit: 762 x 764 km, 98.3° (Epoch: 14 September)

Event Time Altitude Azimuth Distance (km) Brightness Sun altitude
Rises 18:21:09 0° 4° (N) 3,233 6.9 -17.5°
Reaches altitude 10° 18:23:32 10° 359° (N) 2,303 5.9 -17.1°
Maximum altitude 18:28:20 44° 288° (WNW) 1,044 3.4 -16.3°
Enters shadow 18:30:46 26° 232° (SW) 1,476 3.9 -15.9°
